| time (UTC) | temp C | wind direction | speed KPH | gust KPH | rain 1hr cm | rain 24hr cm | rain mn cm | humidity % | barometer mb |
| 20260506005108 | 11 | 290 | 0.0 | 0.0 | 0.00 | 0.00 | 0.00 | 90 | 1004.6 |
| 20260506004607 | 11 | 289 | 0.0 | 0.0 | 0.00 | 0.00 | 0.00 | 90 | 1004.7 |
| 20260506004107 | 11 | 293 | 0.0 | 0.0 | 0.00 | 0.00 | 0.00 | 90 | 1004.7 |
| 20260506003607 | 11 | 284 | 0.0 | 0.0 | 0.00 | 0.00 | 0.00 | 90 | 1004.8 |
| 20260506003109 | 11 | 290 | 0.0 | 0.0 | 0.00 | 0.00 | 0.00 | 90 | 1004.8 |
| 20260506002825 | 11 | 302 | 0.0 | 0.0 | 0.00 | 0.00 | 0.00 | 90 | 1004.8 |
| 20260506002107 | 11 | 287 | 0.0 | 0.0 | 0.00 | 0.00 | 0.00 | 90 | 1004.9 |
| 20260506001609 | 11 | 305 | 0.0 | 0.0 | 0.00 | 0.00 | 0.00 | 90 | 1004.9 |
| 20260506001332 | 11 | 281 | 0.0 | 0.0 | 0.00 | 0.00 | 0.00 | 90 | 1004.9 |
| 20260506000608 | 11 | 280 | 0.0 | 0.0 | 0.00 | 0.00 | 0.00 | 90 | 1005.0 |
| 20260506000110 | 11 | 272 | 0.0 | 0.0 | 0.00 | 0.00 | 0.00 | 90 | 1005.0 |
| 20260505235831 | 11 | 299 | 0.0 | 0.0 | 0.00 | 0.00 | 0.00 | 90 | 1005.1 |
| 20260505235108 | 11 | 280 | 0.0 | 0.0 | 0.00 | 0.00 | 0.00 | 90 | 1005.2 |
| 20260505234607 | 11 | 309 | 0.0 | 0.0 | 0.00 | 0.00 | 0.00 | 90 | 1005.2 |
| 20260505234107 | 11 | 269 | 0.0 | 0.0 | 0.00 | 0.00 | 0.00 | 90 | 1005.2 |
| 20260505234054 | 11 | 330 | 0.0 | 0.0 | 0.00 | 0.00 | 0.00 | 90 | 1005.4 |
| 20260505233108 | 11 | 311 | 0.0 | 0.0 | 0.00 | 0.00 | 0.00 | 90 | 1005.3 |
| 20260505232607 | 11 | 343 | 0.0 | 0.0 | 0.00 | 0.00 | 0.00 | 90 | 1005.4 |
| 20260505232107 | 11 | 299 | 0.0 | 0.0 | 0.00 | 0.00 | 0.00 | 89 | 1005.4 |
| 20260505231607 | 11 | 303 | 0.0 | 0.0 | 0.00 | 0.00 | 0.00 | 89 | 1005.5 |
| 20260505231109 | 11 | 311 | 0.0 | 0.0 | 0.00 | 0.00 | 0.00 | 89 | 1005.5 |
| 20260505230608 | 11 | 297 | 0.0 | 0.0 | 0.00 | 0.00 | 0.00 | 90 | 1005.5 |
| 20260505230334 | 11 | 276 | 0.0 | 0.0 | 0.00 | 0.00 | 0.00 | 90 | 1005.5 |
| 20260505225607 | 11 | 285 | 0.0 | 0.0 | 0.00 | 0.00 | 0.00 | 90 | 1005.6 |
| 20260505225111 | 11 | 300 | 0.0 | 0.0 | 0.00 | 0.00 | 0.00 | 90 | 1005.6 |
| 20260505224603 | 11 | 317 | 0.0 | 0.0 | 0.00 | 0.00 | 0.00 | 89 | 1005.6 |
| 20260505224105 | 11 | 319 | 0.0 | 0.0 | 0.00 | 0.00 | 0.00 | 89 | 1005.6 |
| 20260505223605 | 11 | 324 | 0.0 | 0.0 | 0.00 | 0.00 | 0.00 | 89 | 1005.7 |
| 20260505223558 | 11 | 310 | 0.0 | 0.0 | 0.00 | 0.00 | 0.00 | 89 | 1005.6 |
| 20260505222603 | 11 | 343 | 0.0 | 0.0 | 0.00 | 0.00 | 0.00 | 89 | 1005.7 |
| 20260505222104 | 11 | 296 | 0.0 | 0.0 | 0.00 | 0.00 | 0.00 | 89 | 1005.7 |
| 20260505221603 | 11 | 274 | 0.0 | 0.0 | 0.00 | 0.00 | 0.00 | 89 | 1005.7 |
| 20260505221104 | 11 | 274 | 0.0 | 0.0 | 0.00 | 0.00 | 0.00 | 89 | 1005.7 |
| 20260505220559 | 11 | 274 | 0.0 | 0.0 | 0.00 | 0.00 | 0.00 | 89 | 1005.7 |
| 20260505220329 | 11 | 274 | 0.0 | 0.0 | 0.00 | 0.00 | 0.00 | 89 | 1005.7 |
| 20260505215814 | 11 | 274 | 0.0 | 0.0 | 0.00 | 0.00 | 0.00 | 89 | 1005.8 |
| 20260505215056 | 11 | 274 | 0.0 | 0.0 | 0.00 | 0.00 | 0.00 | 89 | 1005.8 |
| 20260505214820 | 11 | 272 | 0.0 | 0.0 | 0.00 | 0.00 | 0.00 | 89 | 1005.8 |
| 20260505214316 | 11 | 272 | 0.0 | 0.0 | 0.00 | 0.00 | 0.00 | 89 | 1005.9 |
| 20260505213810 | 11 | 272 | 0.0 | 0.0 | 0.00 | 0.00 | 0.00 | 89 | 1005.9 |
| 20260505213055 | 11 | 271 | 0.0 | 0.0 | 0.00 | 0.00 | 0.00 | 89 | 1005.9 |
| 20260505212557 | 11 | 270 | 0.0 | 0.0 | 0.00 | 0.00 | 0.00 | 89 | 1006.0 |
| 20260505212054 | 11 | 271 | 0.0 | 0.0 | 0.00 | 0.00 | 0.00 | 89 | 1006.1 |
| 20260505211548 | 11 | 271 | 0.0 | 0.0 | 0.00 | 0.00 | 0.00 | 89 | 1006.1 |
| 20260505211049 | 11 | 271 | 0.0 | 0.0 | 0.00 | 0.00 | 0.00 | 89 | 1006.1 |
| 20260505210808 | 11 | 271 | 0.0 | 0.0 | 0.00 | 0.00 | 0.00 | 89 | 1006.2 |
| 20260505210058 | 12 | 309 | 0.0 | 0.0 | 0.00 | 0.00 | 0.00 | 89 | 1006.2 |
| 20260505205547 | 12 | 348 | 0.0 | 0.0 | 0.00 | 0.00 | 0.00 | 89 | 1006.2 |
| 20260505205047 | 12 | 299 | 0.0 | 0.0 | 0.00 | 0.00 | 0.00 | 89 | 1006.2 |
| 20260505204547 | 12 | 307 | 0.0 | 0.0 | 0.00 | 0.00 | 0.00 | 89 | 1006.3 |
| 20260505204047 | 12 | 313 | 0.0 | 0.0 | 0.00 | 0.00 | 0.00 | 89 | 1006.3 |
| 20260505203547 | 12 | 307 | 0.0 | 0.0 | 0.00 | 0.00 | 0.00 | 89 | 1006.3 |
| 20260505203046 | 12 | 328 | 0.0 | 0.0 | 0.00 | 0.00 | 0.00 | 89 | 1006.3 |
| 20260505202547 | 12 | 323 | 0.0 | 0.0 | 0.00 | 0.00 | 0.00 | 89 | 1006.3 |
| 20260505202042 | 12 | 300 | 0.0 | 0.0 | 0.00 | 0.00 | 0.00 | 89 | 1006.2 |
| 20260505201534 | 12 | 348 | 0.0 | 0.0 | 0.00 | 0.00 | 0.00 | 89 | 1006.3 |
| 20260505201031 | 12 | 314 | 0.0 | 0.0 | 0.00 | 0.00 | 0.00 | 89 | 1006.3 |
| 20260505200758 | 12 | 309 | 0.0 | 0.0 | 0.00 | 0.00 | 0.00 | 89 | 1006.2 |
| 20260505200031 | 12 | 312 | 0.0 | 0.0 | 0.00 | 0.00 | 0.00 | 89 | 1006.2 |
| 20260505195532 | 12 | 321 | 0.0 | 0.0 | 0.00 | 0.00 | 0.00 | 89 | 1006.3 |
| 20260505195030 | 12 | 318 | 0.0 | 0.0 | 0.00 | 0.00 | 0.00 | 89 | 1006.2 |
| 20260505194532 | 12 | 325 | 0.0 | 0.0 | 0.00 | 0.00 | 0.00 | 89 | 1006.2 |
| 20260505194031 | 12 | 357 | 0.0 | 0.0 | 0.00 | 0.00 | 0.00 | 89 | 1006.3 |
| 20260505193530 | 12 | 353 | 0.0 | 0.0 | 0.00 | 0.00 | 0.00 | 88 | 1006.3 |
| 20260505193028 | 12 | 353 | 0.0 | 0.0 | 0.00 | 0.00 | 0.00 | 88 | 1006.3 |
| 20260505192527 | 12 | 353 | 0.0 | 0.0 | 0.00 | 0.00 | 0.00 | 88 | 1006.3 |
| 20260505192026 | 12 | 336 | 0.0 | 0.0 | 0.00 | 0.00 | 0.00 | 88 | 1006.3 |
| 20260505191527 | 12 | 336 | 0.0 | 0.0 | 0.00 | 0.00 | 0.00 | 88 | 1006.3 |
| 20260505191247 | 12 | 320 | 0.0 | 0.0 | 0.00 | 0.00 | 0.00 | 88 | 1006.3 |
| 20260505190525 | 12 | 320 | 0.0 | 0.0 | 0.00 | 0.00 | 0.00 | 88 | 1006.3 |
| 20260505190026 | 12 | 312 | 0.0 | 0.0 | 0.00 | 0.00 | 0.00 | 88 | 1006.3 |
| 20260505185524 | 12 | 312 | 0.0 | 0.0 | 0.00 | 0.00 | 0.00 | 88 | 1006.2 |
| 20260505185025 | 13 | 312 | 0.0 | 0.0 | 0.00 | 0.00 | 0.00 | 88 | 1006.3 |
| 20260505184522 | 13 | 312 | 0.0 | 0.0 | 0.00 | 0.00 | 0.00 | 88 | 1006.3 |
| 20260505184236 | 13 | 312 | 0.0 | 0.0 | 0.00 | 0.00 | 0.00 | 88 | 1006.4 |
| 20260505183519 | 13 | 312 | 0.0 | 0.0 | 0.00 | 0.00 | 0.00 | 88 | 1006.4 |
| 20260505183018 | 13 | 315 | 0.0 | 0.0 | 0.00 | 0.00 | 0.00 | 88 | 1006.4 |
| 20260505182517 | 13 | 324 | 0.0 | 0.0 | 0.00 | 0.00 | 0.00 | 88 | 1006.3 |
| 20260505182016 | 13 | 325 | 0.0 | 0.0 | 0.00 | 0.00 | 0.00 | 88 | 1006.4 |
| 20260505181518 | 13 | 323 | 0.0 | 0.0 | 0.00 | 0.00 | 0.00 | 88 | 1006.4 |
| 20260505181016 | 13 | 323 | 0.0 | 0.0 | 0.00 | 0.00 | 0.00 | 88 | 1006.4 |
| 20260505180528 | 13 | 322 | 0.0 | 0.0 | 0.00 | 0.00 | 0.00 | 88 | 1006.4 |
| 20260505180014 | 13 | 322 | 0.0 | 0.0 | 0.00 | 0.00 | 0.00 | 87 | 1006.4 |
| 20260505180002 | 13 | 322 | 0.0 | 0.0 | 0.00 | 0.00 | 0.00 | 87 | 1006.4 |
| 20260505175011 | 13 | 331 | 0.0 | 0.0 | 0.00 | 0.00 | 0.00 | 87 | 1006.4 |
| 20260505174511 | 13 | 293 | 0.0 | 0.0 | 0.00 | 0.00 | 0.00 | 87 | 1006.3 |
| 20260505174011 | 13 | 301 | 0.0 | 0.0 | 0.00 | 0.00 | 0.00 | 87 | 1006.4 |
| 20260505173513 | 13 | 306 | 0.0 | 0.0 | 0.00 | 0.00 | 0.00 | 87 | 1006.4 |
| 20260505173011 | 13 | 305 | 0.0 | 0.0 | 0.00 | 0.00 | 0.00 | 87 | 1006.4 |
| 20260505172516 | 13 | 300 | 0.0 | 0.0 | 0.00 | 0.00 | 0.00 | 87 | 1006.4 |
| 20260505172010 | 13 | 294 | 0.0 | 0.0 | 0.00 | 0.00 | 0.00 | 87 | 1006.4 |
| 20260505171512 | 13 | 301 | 0.0 | 0.0 | 0.00 | 0.00 | 0.00 | 87 | 1006.5 |
| 20260505171012 | 13 | 313 | 0.0 | 0.0 | 0.00 | 0.00 | 0.00 | 86 | 1006.5 |
| 20260505170508 | 13 | 294 | 0.0 | 0.0 | 0.00 | 0.00 | 0.00 | 86 | 1006.5 |
| 20260505170007 | 13 | 315 | 0.0 | 0.0 | 0.00 | 0.00 | 0.00 | 86 | 1006.5 |
| 20260505165506 | 14 | 322 | 0.0 | 0.0 | 0.00 | 0.00 | 0.00 | 86 | 1006.5 |
| 20260505165014 | 14 | 299 | 0.0 | 0.0 | 0.00 | 0.00 | 0.00 | 86 | 1006.5 |
| 20260505165006 | 14 | 315 | 0.0 | 0.0 | 0.00 | 0.00 | 0.00 | 86 | 1006.5 |
| 20260505164008 | 14 | 359 | 0.0 | 0.0 | 0.00 | 0.00 | 0.00 | 86 | 1006.5 |
| 20260505163508 | 14 | 18 | 0.0 | 0.0 | 0.00 | 0.00 | 0.00 | 85 | 1006.5 |
| 20260505163009 | 14 | 303 | 0.0 | 0.0 | 0.00 | 0.00 | 0.00 | 85 | 1006.4 |
| 20260505162509 | 14 | 8 | 0.0 | 0.0 | 0.00 | 0.00 | 0.00 | 85 | 1006.5 |
| 20260505162003 | 15 | 315 | 0.0 | 0.0 | 0.00 | 0.00 | 0.00 | 85 | 1006.5 |
| 20260505161722 | 14 | 22 | 0.0 | 0.0 | 0.00 | 0.00 | 0.00 | 85 | 1006.6 |
| 20260505161003 | 14 | 301 | 0.0 | 0.0 | 0.00 | 0.00 | 0.00 | 84 | 1006.5 |
| 20260505160725 | 14 | 313 | 0.0 | 0.0 | 0.00 | 0.00 | 0.00 | 84 | 1006.5 |
| 20260505152958 | 16 | 300 | 0.0 | 0.0 | 0.00 | 0.00 | 0.00 | 81 | 1006.4 |
| 20260505152500 | 16 | 334 | 0.0 | 0.0 | 0.00 | 0.00 | 0.00 | 81 | 1006.5 |
| 20260505152219 | 16 | 324 | 0.0 | 0.0 | 0.00 | 0.00 | 0.00 | 81 | 1006.5 |
| 20260505151458 | 16 | 303 | 0.0 | 0.0 | 0.00 | 0.00 | 0.00 | 80 | 1006.5 |
| 20260505150959 | 16 | 311 | 0.0 | 0.0 | 0.00 | 0.00 | 0.00 | 80 | 1006.4 |
| 20260505150459 | 16 | 324 | 0.0 | 0.0 | 0.00 | 0.00 | 0.00 | 80 | 1006.4 |
| 20260505140450 | 18 | 337 | 0.0 | 0.0 | 0.00 | 0.00 | 0.00 | 68 | 1006.9 |
| 20260505124946 | 17 | 301 | 0.0 | 0.0 | 0.00 | 0.00 | 0.00 | 70 | 1007.6 |
| 20260505124447 | 17 | 305 | 0.0 | 0.0 | 0.00 | 0.00 | 0.00 | 70 | 1007.6 |
| 20260505123946 | 17 | 306 | 0.0 | 0.0 | 0.00 | 0.00 | 0.00 | 71 | 1007.6 |
| 20260505123444 | 17 | 306 | 0.0 | 0.0 | 0.00 | 0.00 | 0.00 | 69 | 1007.6 |
| 20260505122943 | 18 | 303 | 0.0 | 0.0 | 0.00 | 0.00 | 0.00 | 68 | 1007.7 |
| 20260505122442 | 18 | 295 | 0.0 | 0.0 | 0.00 | 0.00 | 0.00 | 68 | 1007.7 |
| 20260505122214 | 18 | 270 | 0.0 | 0.0 | 0.00 | 0.00 | 0.00 | 69 | 1007.8 |
| 20260505121706 | 18 | 348 | 0.0 | 0.0 | 0.00 | 0.00 | 0.00 | 69 | 1007.8 |
| 20260505120942 | 18 | 13 | 0.0 | 0.0 | 0.00 | 0.00 | 0.00 | 72 | 1007.8 |
| 20260505120444 | 18 | 265 | 0.0 | 0.0 | 0.00 | 0.00 | 0.00 | 72 | 1007.8 |
| 20260505115942 | 18 | 1 | 0.0 | 0.0 | 0.00 | 0.00 | 0.00 | 74 | 1007.9 |
| 20260505115443 | 17 | 353 | 0.0 | 0.0 | 0.00 | 0.00 | 0.00 | 75 | 1008.0 |
| 20260505114942 | 17 | 4 | 0.0 | 0.0 | 0.00 | 0.00 | 0.00 | 76 | 1008.1 |
| 20260505114700 | 16 | 270 | 0.0 | 0.0 | 0.00 | 0.00 | 0.00 | 76 | 1008.1 |
| 20260505113942 | 16 | 270 | 0.0 | 0.0 | 0.00 | 0.00 | 0.00 | 76 | 1008.0 |
| 20260505113708 | 16 | 270 | 0.0 | 0.0 | 0.00 | 0.00 | 0.00 | 76 | 1008.0 |
| 20260505112942 | 16 | 270 | 0.0 | 0.0 | 0.00 | 0.00 | 0.00 | 76 | 1008.1 |
| 20260505112443 | 16 | 259 | 0.0 | 0.0 | 0.00 | 0.00 | 0.00 | 77 | 1008.1 |
| 20260505111955 | 16 | 259 | 0.0 | 0.0 | 0.00 | 0.00 | 0.00 | 77 | 1008.2 |
| 20260505111442 | 16 | 259 | 0.0 | 0.0 | 0.00 | 0.00 | 0.00 | 78 | 1008.2 |
| 20260505110942 | 16 | 259 | 0.0 | 0.0 | 0.00 | 0.00 | 0.00 | 79 | 1008.2 |
| 20260505110704 | 16 | 259 | 0.0 | 0.0 | 0.00 | 0.00 | 0.00 | 79 | 1008.4 |
| 20260505101903 | 16 | 8 | 0.0 | 0.0 | 0.00 | 0.00 | 0.00 | 83 | 1008.8 |
| 20260505101353 | 16 | 50 | 0.0 | 0.0 | 0.00 | 0.00 | 0.00 | 84 | 1008.8 |
| 20260505100854 | 16 | 46 | 0.0 | 0.0 | 0.00 | 0.00 | 0.00 | 84 | 1008.8 |
| 20260505100243 | 15 | 43 | 0.0 | 0.0 | 0.00 | 0.00 | 0.00 | 85 | 1008.8 |
| 20260505095720 | 16 | 43 | 0.0 | 0.0 | 0.00 | 0.00 | 0.00 | 86 | 1008.9 |
| 20260505095219 | 15 | 55 | 0.0 | 0.0 | 0.00 | 0.00 | 0.00 | 87 | 1008.9 |
| 20260505094714 | 15 | 58 | 0.0 | 0.0 | 0.00 | 0.00 | 0.00 | 87 | 1008.9 |
| 20260505094157 | 15 | 86 | 0.0 | 0.0 | 0.00 | 0.00 | 0.00 | 88 | 1009.0 |
| 20260505093649 | 15 | 113 | 0.0 | 0.0 | 0.00 | 0.00 | 0.00 | 88 | 1009.1 |
| 20260505093138 | 15 | 234 | 0.0 | 0.0 | 0.00 | 0.00 | 0.00 | 89 | 1009.0 |
| 20260505092628 | 15 | 228 | 0.0 | 0.0 | 0.00 | 0.00 | 0.00 | 88 | 1009.0 |
| 20260505092557 | 14 | 164 | 0.0 | 0.0 | 0.00 | 0.00 | 0.00 | 88 | 1009.1 |
| 20260505091606 | 14 | 162 | 0.0 | 0.0 | 0.00 | 0.00 | 0.00 | 89 | 1009.2 |
| 20260505091053 | 14 | 162 | 0.0 | 0.0 | 0.00 | 0.00 | 0.00 | 89 | 1009.2 |
| 20260505090544 | 14 | 162 | 0.0 | 0.0 | 0.00 | 0.00 | 0.00 | 89 | 1009.2 |
| 20260505085929 | 14 | 162 | 0.0 | 0.0 | 0.00 | 0.00 | 0.00 | 89 | 1009.2 |
| 20260505085420 | 14 | 161 | 0.0 | 0.0 | 0.00 | 0.00 | 0.00 | 90 | 1009.2 |
| 20260505084907 | 14 | 162 | 0.0 | 0.0 | 0.00 | 0.00 | 0.00 | 90 | 1009.1 |
| 20260505084842 | 13 | 161 | 0.0 | 0.0 | 0.00 | 0.00 | 0.00 | 90 | 1009.1 |
| 20260505083846 | 13 | 162 | 0.0 | 0.0 | 0.00 | 0.00 | 0.00 | 90 | 1009.2 |
| 20260505083228 | 13 | 162 | 0.0 | 0.0 | 0.00 | 0.00 | 0.00 | 90 | 1009.2 |
| 20260505082725 | 13 | 162 | 0.0 | 0.0 | 0.00 | 0.00 | 0.00 | 90 | 1009.3 |
| 20260505082223 | 13 | 162 | 0.0 | 0.0 | 0.00 | 0.00 | 0.00 | 91 | 1009.3 |
| 20260505081654 | 13 | 162 | 0.0 | 0.0 | 0.00 | 0.00 | 0.00 | 90 | 1009.3 |
| 20260505081147 | 13 | 161 | 0.0 | 0.0 | 0.00 | 0.00 | 0.00 | 90 | 1009.4 |
| 20260505080642 | 13 | 161 | 0.0 | 0.0 | 0.00 | 0.00 | 0.00 | 91 | 1009.3 |
| 20260505080143 | 13 | 161 | 0.0 | 0.0 | 0.00 | 0.00 | 0.00 | 91 | 1009.4 |
| 20260505075642 | 13 | 161 | 0.0 | 0.0 | 0.00 | 0.00 | 0.00 | 91 | 1009.4 |
| 20260505074355 | 13 | 161 | 0.0 | 0.0 | 0.00 | 0.00 | 0.00 | 91 | 1009.5 |
| 20260505073627 | 13 | 161 | 0.0 | 0.0 | 0.00 | 0.00 | 0.00 | 91 | 1009.5 |
| 20260505073116 | 13 | 161 | 0.0 | 0.0 | 0.00 | 0.00 | 0.00 | 91 | 1009.6 |
| 20260505072607 | 13 | 163 | 0.0 | 0.0 | 0.00 | 0.00 | 0.00 | 91 | 1009.5 |
| 20260505072053 | 12 | 163 | 0.0 | 0.0 | 0.00 | 0.00 | 0.00 | 91 | 1009.6 |
| 20260505071545 | 12 | 163 | 0.0 | 0.0 | 0.00 | 0.00 | 0.00 | 91 | 1009.6 |
| 20260505071035 | 13 | 163 | 0.0 | 0.0 | 0.00 | 0.00 | 0.00 | 91 | 1009.5 |
| 20260505070522 | 13 | 162 | 0.0 | 0.0 | 0.00 | 0.00 | 0.00 | 91 | 1009.7 |
| 20260505065909 | 13 | 162 | 0.0 | 0.0 | 0.00 | 0.00 | 0.00 | 91 | 1009.7 |
| 20260505065345 | 12 | 163 | 0.0 | 0.0 | 0.00 | 0.00 | 0.00 | 91 | 1009.3 |
| 20260505064700 | 13 | 163 | 0.0 | 0.0 | 0.00 | 0.00 | 0.00 | 91 | 1009.6 |
| 20260505064154 | 12 | 163 | 0.0 | 0.0 | 0.00 | 0.00 | 0.00 | 91 | 1009.7 |
| 20260505063647 | 12 | 163 | 0.0 | 0.0 | 0.00 | 0.00 | 0.00 | 91 | 1009.8 |
| 20260505063142 | 12 | 163 | 0.0 | 0.0 | 0.00 | 0.00 | 0.00 | 91 | 1009.8 |
| 20260505062635 | 12 | 163 | 0.0 | 0.0 | 0.00 | 0.00 | 0.00 | 91 | 1009.8 |
| 20260505062143 | 12 | 163 | 0.0 | 0.0 | 0.00 | 0.00 | 0.00 | 91 | 1009.8 |
| 20260505061625 | 12 | 163 | 0.0 | 0.0 | 0.00 | 0.00 | 0.00 | 91 | 1009.8 |
| 20260505061118 | 12 | 163 | 0.0 | 0.0 | 0.00 | 0.00 | 0.00 | 91 | 1009.9 |
| 20260505060611 | 12 | 163 | 0.0 | 0.0 | 0.00 | 0.00 | 0.00 | 91 | 1009.8 |
| 20260505060119 | 12 | 163 | 0.0 | 0.0 | 0.00 | 0.00 | 0.00 | 91 | 1009.9 |
| 20260505055803 | 12 | 163 | 0.0 | 0.0 | 0.00 | 0.00 | 0.00 | 91 | 1009.7 |
| 20260505055643 | 12 | 163 | 0.0 | 0.0 | 0.00 | 0.00 | 0.00 | 91 | 1009.8 |
| 20260505054547 | 12 | 163 | 0.0 | 0.0 | 0.00 | 0.00 | 0.00 | 91 | 1009.8 |
| 20260505054041 | 12 | 163 | 0.0 | 0.0 | 0.00 | 0.00 | 0.00 | 91 | 1009.8 |
| 20260505053537 | 12 | 163 | 0.0 | 0.0 | 0.00 | 0.00 | 0.00 | 91 | 1009.8 |
| 20260505053031 | 12 | 163 | 0.0 | 0.0 | 0.00 | 0.00 | 0.00 | 91 | 1009.9 |
| 20260505052741 | 12 | 163 | 0.0 | 0.0 | 0.00 | 0.00 | 0.00 | 91 | 1009.9 |
| 20260505052018 | 12 | 163 | 0.0 | 0.0 | 0.00 | 0.00 | 0.00 | 91 | 1009.8 |
| 20260505051512 | 12 | 163 | 0.0 | 0.0 | 0.00 | 0.00 | 0.00 | 91 | 1009.9 |
| 20260505051006 | 12 | 164 | 0.0 | 0.0 | 0.00 | 0.00 | 0.00 | 91 | 1009.9 |
| 20260505050500 | 12 | 164 | 0.0 | 0.0 | 0.00 | 0.00 | 0.00 | 91 | 1009.9 |
| 20260505041627 | 12 | 163 | 0.0 | 0.0 | 0.00 | 0.00 | 0.00 | 91 | 1010.1 |
| 20260505041110 | 12 | 163 | 0.0 | 0.0 | 0.00 | 0.00 | 0.00 | 91 | 1010.1 |
| 20260505040604 | 12 | 163 | 0.0 | 0.0 | 0.00 | 0.00 | 0.00 | 91 | 1010.2 |
| 20260505035842 | 12 | 163 | 0.0 | 0.0 | 0.00 | 0.00 | 0.00 | 91 | 1010.2 |
| 20260505035603 | 12 | 163 | 0.0 | 0.0 | 0.00 | 0.00 | 0.00 | 91 | 1010.3 |
| 20260505034829 | 12 | 163 | 0.0 | 0.0 | 0.00 | 0.00 | 0.00 | 91 | 1010.3 |
| 20260505034547 | 12 | 163 | 0.0 | 0.0 | 0.00 | 0.00 | 0.00 | 91 | 1010.3 |
| 20260505033817 | 12 | 163 | 0.0 | 0.0 | 0.00 | 0.00 | 0.00 | 91 | 1010.3 |
| 20260505033313 | 12 | 163 | 0.0 | 0.0 | 0.00 | 0.00 | 0.00 | 91 | 1010.3 |
| 20260505032806 | 12 | 163 | 0.0 | 0.0 | 0.00 | 0.00 | 0.00 | 91 | 1010.3 |
| 20260505032259 | 12 | 163 | 0.0 | 0.0 | 0.00 | 0.00 | 0.00 | 91 | 1010.5 |
| 20260505031753 | 12 | 163 | 0.0 | 0.0 | 0.00 | 0.00 | 0.00 | 91 | 1010.5 |
| 20260505031248 | 12 | 163 | 0.0 | 0.0 | 0.00 | 0.00 | 0.00 | 91 | 1010.5 |
| 20260505031001 | 12 | 163 | 0.0 | 0.0 | 0.00 | 0.00 | 0.00 | 91 | 1010.5 |
| 20260505030454 | 12 | 163 | 0.0 | 0.0 | 0.00 | 0.00 | 0.00 | 91 | 1010.5 |
| 20260505025730 | 12 | 163 | 0.0 | 0.0 | 0.00 | 0.00 | 0.00 | 91 | 1010.6 |
| 20260505025223 | 12 | 163 | 0.0 | 0.0 | 0.00 | 0.00 | 0.00 | 91 | 1010.7 |
| 20260505024717 | 12 | 163 | 0.0 | 0.0 | 0.00 | 0.00 | 0.00 | 91 | 1010.6 |
| 20260505024211 | 12 | 163 | 0.0 | 0.0 | 0.00 | 0.00 | 0.00 | 91 | 1010.7 |
| 20260505023933 | 12 | 163 | 0.0 | 0.0 | 0.00 | 0.00 | 0.00 | 91 | 1010.7 |
| 20260505023159 | 12 | 163 | 0.0 | 0.0 | 0.00 | 0.00 | 0.00 | 91 | 1010.7 |
| 20260505022654 | 12 | 163 | 0.0 | 0.0 | 0.00 | 0.00 | 0.00 | 91 | 1010.8 |
| 20260505022407 | 12 | 163 | 0.0 | 0.0 | 0.00 | 0.00 | 0.00 | 91 | 1010.7 |
| 20260505021641 | 12 | 163 | 0.0 | 0.0 | 0.00 | 0.00 | 0.00 | 91 | 1010.8 |
| 20260505021137 | 12 | 163 | 0.0 | 0.0 | 0.00 | 0.00 | 0.00 | 91 | 1010.8 |
| 20260505020636 | 12 | 163 | 0.0 | 0.0 | 0.00 | 0.00 | 0.00 | 90 | 1010.8 |
| 20260505020136 | 12 | 163 | 0.0 | 0.0 | 0.00 | 0.00 | 0.00 | 90 | 1010.7 |
| 20260505015633 | 12 | 163 | 0.0 | 0.0 | 0.00 | 0.00 | 0.00 | 90 | 1010.8 |
| 20260505015133 | 12 | 163 | 0.0 | 0.0 | 0.00 | 0.00 | 0.00 | 90 | 1010.7 |
| 20260505014632 | 12 | 163 | 0.0 | 0.0 | 0.00 | 0.00 | 0.00 | 90 | 1010.9 |
| 20260505014130 | 12 | 163 | 0.0 | 0.0 | 0.00 | 0.00 | 0.00 | 90 | 1010.9 |
| 20260505013631 | 12 | 163 | 0.0 | 0.0 | 0.00 | 0.00 | 0.00 | 91 | 1010.9 |
| 20260505013354 | 12 | 163 | 0.0 | 0.0 | 0.00 | 0.00 | 0.00 | 91 | 1011.0 |
| 20260505012629 | 12 | 163 | 0.0 | 0.0 | 0.00 | 0.00 | 0.00 | 91 | 1011.0 |
| 20260505012131 | 12 | 163 | 0.0 | 0.0 | 0.00 | 0.00 | 0.00 | 90 | 1011.0 |
| 20260505011627 | 12 | 163 | 0.0 | 0.0 | 0.00 | 0.00 | 0.00 | 90 | 1011.0 |
| 20260505011127 | 12 | 163 | 0.0 | 0.0 | 0.00 | 0.00 | 0.00 | 90 | 1011.1 |
| 20260505010628 | 12 | 163 | 0.0 | 0.0 | 0.00 | 0.00 | 0.00 | 90 | 1011.1 |
| 20260505010127 | 12 | 163 | 0.0 | 0.0 | 0.00 | 0.00 | 0.00 | 90 | 1011.1 |
| 20260505005625 | 12 | 164 | 0.0 | 0.0 | 0.00 | 0.00 | 0.00 | 90 | 1011.2 |
| 20260505005125 | 12 | 164 | 0.0 | 0.0 | 0.00 | 0.00 | 0.00 | 90 | 1011.2 |